Location: Las Navas
(40.6024°N, 4.3345°W)
Time: 08:40:49
(UTC+00:00)

Cosmos 1908 - Pass Details

Date: 03 April 2020
Orbit: 511 x 531 km, 82.5° (Epoch: 29 May)

Event Time Altitude Azimuth Distance (km) Brightness Sun altitude
Exits shadow 20:27:01 54° 135° (SE) 636 3.2 -19.4°
Maximum altitude 20:27:33 62° 95° (E) 593 3.1 -19.4°
Drops below altitude 10° 20:31:23 10° 15° (NNE) 1,770 6.0 -20.1°
Sets 20:33:33 0° 12° (NNE) 2,667 7.0 -20.5°
